[[{"header":{"parameterUnit":"m.s-1","parameterCategory":1,"la1":30.2991,"la2":30.254,"lo1":-89.0895,"lo2":-89.0444,"dy":0.0017,"dx":0.0017,"nx":28,"ny":28,"refTime":"2023-08-26T09:00:00:Z","depth":0,"parameterNumber":2,"parameterNumberName":"U-component_of_WINDS"},"data":[0,0,0,0,0,0,0,0,0,0,0,0,0,0,0,0,0,0,0,0,0,0,0,0,0,0,0,0,0,0,0,0,0,0,0,0,0,0,0,0,0,0,0,0,0,0,0,0,0,0,0,0,0,0,0,0,0,0,2.7657,2.7658,0,2.7718,2.7718,2.7719,2.7673,2.7671,2.7669,2.7667,2.7726,2.7729,2.7733,0,0,0,0,0,0,0,0,0,0,0,0,0,2.75,2.7503,2.7657,2.7658,2.7659,2.7718,2.7718,2.7719,2.7673,2.7671,2.7668,2.7666,2.7725,2.7729,2.7733,0,0,0,0,0,0,0,0,0,0,0,0,0,2.7565,2.7504,2.7657,2.7643,2.7642,2.7718,2.7719,2.772,2.7673,2.767,2.7667,2.7665,2.7724,2.7729,2.7734,2.7826,0,0,2.775,2.7752,0,0,0,0,0,0,0,0,2.7561,2.7571,2.7644,2.7644,2.7643,2.7685,2.7685,2.7755,2.7674,2.7661,2.7667,2.7663,2.7715,2.772,2.7738,2.7829,2.7831,2.775,2.7753,2.7755,2.7757,0,0,0,0,0,0,0,2.7557,2.7568,2.7681,2.7645,2.7645,2.7633,2.7639,2.7698,2.7704,2.7662,2.7659,2.7667,2.7714,2.7733,2.7739,2.7832,2.775,2.7754,2.7758,2.776,2.8002,2.8006,0,0,0,0,0,0,2.7554,2.7564,2.7679,2.7683,2.7594,2.7638,2.7645,2.7674,2.7703,2.7705,2.767,2.7665,2.7726,2.7733,2.7741,2.7852,2.7755,2.776,2.7763,2.7999,2.8003,2.8007,0,0,0,0,0,0,2.7551,2.7565,2.7677,2.7623,2.7636,2.7644,2.7678,2.7677,2.7697,2.7709,2.7709,2.7689,2.7724,2.7734,2.7806,2.7853,2.7763,2.7767,2.7995,2.8,2.8005,2.8073,0,0,0,0,0,0,2.7547,2.7564,2.7599,2.7624,2.7639,2.7741,2.768,2.768,2.7706,2.77,2.7727,2.7728,2.7722,2.7798,2.7811,2.7858,2.7771,2.7991,2.7997,2.8003,2.8066,2.808,2.8091,0,0,0,0,0,2.7541,2.7615,2.7601,2.7615,2.7684,2.7743,2.7752,2.7745,2.771,2.7745,2.7754,2.7727,2.7846,2.7806,2.782,2.787,2.7988,2.7996,2.8003,2.8061,2.8077,2.8091,0,0,0,0,0,0,2.7594,2.7618,2.7603,2.7687,2.7714,2.7736,2.778,2.7762,2.7798,2.7791,2.7779,2.7785,2.7861,2.7872,2.7827,2.7961,2.7911,2.7922,2.7951,2.7966,2.7978,2.7974,2.7776,0,0,0,0,0,2.7616,2.7663,2.7681,2.7753,2.7768,2.7772,2.7797,2.779,2.7816,2.7827,2.784,2.7867,2.791,2.7939,2.7979,2.8068,2.8074,2.8109,2.8122,2.8132,2.8141,2.819,2.8206,2.8031,2.8031,2.8031,0,0,2.766,2.7679,2.7709,2.7765,2.7784,2.7833,2.7781,2.7835,2.7871,2.7835,2.7904,2.7915,2.7944,2.8025,2.8061,2.8037,2.8191,2.8141,2.8149,2.8153,2.8199,2.8216,2.8231,2.8037,2.8036,2.8035,0,0,2.7767,2.7786,2.7849,2.7871,2.7902,2.7904,2.792,2.7945,2.7951,2.8021,2.7995,2.8037,2.8112,2.8134,2.8155,2.8273,2.825,2.8286,2.835,2.8398,2.8411,2.8424,2.8466,2.8481,2.8295,2.8295,2.8295,0,2.7818,2.7892,2.7884,2.794,2.7965,2.7936,2.8,2.8021,2.8064,2.8082,2.8054,2.8148,2.8165,2.8252,2.8281,2.8299,2.8316,2.8283,2.841,2.8422,2.8434,2.8474,2.849,2.83,2.8299,2.8299,2.8298,0,2.7954,2.8005,2.8052,2.8096,2.8126,2.8186,2.8187,2.8219,2.8209,2.8215,2.8286,2.8306,2.8351,2.8371,2.8361,2.8457,2.8441,2.8412,2.8362,2.8455,2.8492,2.8508,2.8306,2.8304,2.8303,2.8302,0,0,2.8094,2.8134,2.8151,2.8171,2.8205,2.8244,2.8303,2.8348,2.8376,2.8406,2.8455,2.852,2.8495,2.8519,2.8511,2.8553,2.8646,2.8519,2.852,2.8543,2.8754,2.8775,2.8793,2.8632,2.8635,2.8637,2.8752,0,2.8203,2.8306,2.8302,2.8398,2.8446,2.842,2.8471,2.8497,2.8505,2.8546,2.8553,2.86,2.8562,2.8576,2.8617,2.8626,2.8688,2.8618,2.8677,2.868,2.8671,2.8813,2.8835,2.8942,2.8766,2.8769,2.877,0,2.8343,2.838,2.8482,2.851,2.853,2.8576,2.8618,2.8658,2.8687,2.8689,2.8717,2.8703,2.8763,2.8712,2.8794,2.8746,2.877,2.8779,2.8783,2.8788,2.873,2.8822,2.8976,2.8993,2.8794,2.8792,2.879,0,2.8436,2.8512,2.8583,2.86,2.8634,2.8668,2.8683,2.871,2.8737,2.8774,2.8792,2.8834,2.8857,2.889,2.8888,2.8851,2.8972,2.8921,2.8976,2.8976,2.9002,2.9,2.9162,2.9018,2.9017,2.9017,2.9017,0,2.8558,2.8622,2.8625,2.8669,2.8739,2.8734,2.8803,2.8815,2.8839,2.8885,2.8865,2.8908,2.8903,2.8946,2.8945,2.9014,2.9024,2.9028,2.9026,2.9029,2.9029,2.9045,2.9037,2.9021,2.902,2.902,2.9019,0,2.8674,2.8679,2.8754,2.8781,2.8789,2.884,2.8863,2.8904,2.891,2.8968,2.8981,2.8991,2.9041,2.9043,2.91,2.9099,2.9183,2.9174,2.9174,2.9172,2.9227,2.9222,2.9405,2.9429,2.9269,2.927,2.9271,0,2.8751,2.88,2.8832,2.8862,2.888,2.8928,2.8956,2.8953,2.8984,2.9022,2.9059,2.9107,2.9146,2.9227,2.9239,2.9283,2.9274,2.9336,2.9281,2.9283,2.9276,2.9273,2.9278,2.9346,2.9348,2.9349,2.935,0,2.8889,2.8889,2.8932,2.8976,2.9012,2.9046,2.9078,2.9103,2.9103,2.9139,2.9191,2.9221,2.9281,2.9329,2.9372,2.9388,2.937,2.9368,2.9383,2.9387,2.9385,2.9387,2.9203,2.9363,2.9362,2.9361,2.9361,2.936,2.8988,2.903,2.906,2.9109,2.9133,2.9164,2.9205,2.9217,2.926,2.9309,2.9304,2.9362,2.9391,2.9447,2.9466,2.9511,2.949,2.9512,2.9517,2.9523,2.9529,2.9378,2.9519,2.9519,2.9518,2.9518,2.9518,0,2.9125,2.9143,2.9188,2.9234,2.9273,2.9254,2.9288,2.9322,2.9373,2.9402,2.9441,2.9501,2.9549,2.9565,2.9611,2.9644,2.9637,2.9657,2.9654,2.9658,2.9545,2.9528,2.9662,2.9662,2.9662,2.9662,2.9662,2.9661,2.92,2.9272,2.9276,2.9359,2.9377,2.9434,2.9456,2.9484,2.9508,2.9576,2.9616,2.9626,2.9651,2.9699,2.9742,2.9745,2.9763,2.9786,2.9786,2.968,2.9666,2.9652,2.9636,2.979,2.979,2.9895,2.9896,2.9897]},{"header":{"parameterUnit":"m.s-1","parameterCategory":1,"la1":30.2991,"la2":30.254,"lo1":-89.0895,"lo2":-89.0444,"dy":0.0017,"dx":0.0017,"nx":28,"ny":28,"refTime":"2023-08-26T09:00:00:Z","depth":0,"parameterNumber":3,"parameterNumberName":"V-component_of_WINDS"},"data":[0,0,0,0,0,0,0,0,0,0,0,0,0,0,0,0,0,0,0,0,0,0,0,0,0,0,0,0,0,0,0,0,0,0,0,0,0,0,0,0,0,0,0,0,0,0,0,0,0,0,0,0,0,0,0,0,0,0,-2.2563,-2.2564,0,-2.2675,-2.2676,-2.2678,-2.268,-2.2679,-2.2678,-2.2676,-2.2793,-2.2797,-2.2801,0,0,0,0,0,0,0,0,0,0,0,0,0,-2.2354,-2.2358,-2.2563,-2.2564,-2.2566,-2.2675,-2.2676,-2.2678,-2.2681,-2.2679,-2.2677,-2.2676,-2.2791,-2.2797,-2.2802,0,0,0,0,0,0,0,0,0,0,0,0,0,-2.2453,-2.2359,-2.2563,-2.258,-2.2583,-2.2674,-2.2676,-2.2678,-2.2681,-2.2679,-2.2677,-2.2675,-2.279,-2.2796,-2.2803,-2.2885,0,0,-2.2823,-2.2826,0,0,0,0,0,0,0,0,-2.2448,-2.2461,-2.2576,-2.2579,-2.2582,-2.2662,-2.2645,-2.2748,-2.2681,-2.2644,-2.2676,-2.2674,-2.2751,-2.2761,-2.2786,-2.289,-2.2895,-2.2823,-2.2827,-2.283,-2.2832,0,0,0,0,0,0,0,-2.2441,-2.2456,-2.2607,-2.2578,-2.2582,-2.2583,-2.2595,-2.2665,-2.2708,-2.2647,-2.2647,-2.2661,-2.2752,-2.278,-2.2789,-2.2897,-2.2823,-2.2829,-2.2833,-2.2836,-2.3075,-2.3077,0,0,0,0,0,0,-2.243,-2.2451,-2.2604,-2.2611,-2.2509,-2.2589,-2.2602,-2.2638,-2.2707,-2.2715,-2.2662,-2.266,-2.277,-2.2781,-2.2793,-2.2894,-2.283,-2.2836,-2.284,-2.3073,-2.3076,-2.3078,0,0,0,0,0,0,-2.2426,-2.2444,-2.2599,-2.2531,-2.2551,-2.2595,-2.2635,-2.2642,-2.2669,-2.2718,-2.2726,-2.2682,-2.2768,-2.2784,-2.2862,-2.2899,-2.2839,-2.2845,-2.307,-2.3074,-2.3077,-2.3097,0,0,0,0,0,0,-2.242,-2.2442,-2.2473,-2.2531,-2.2554,-2.2666,-2.2638,-2.2645,-2.268,-2.2679,-2.2739,-2.2748,-2.2768,-2.2852,-2.2869,-2.2907,-2.285,-2.3067,-2.3072,-2.3076,-2.3094,-2.3101,-2.3108,0,0,0,0,0,-2.2412,-2.2475,-2.2475,-2.2493,-2.2594,-2.2668,-2.2681,-2.2703,-2.2683,-2.2715,-2.2747,-2.2746,-2.2892,-2.286,-2.2879,-2.2919,-2.3065,-2.307,-2.3076,-2.309,-2.31,-2.3108,0,0,0,0,0,0,-2.242,-2.2483,-2.2483,-2.2567,-2.2612,-2.2668,-2.2709,-2.2712,-2.2764,-2.276,-2.2786,-2.2799,-2.2877,-2.2906,-2.287,-2.3003,-2.2976,-2.2985,-2.2981,-2.299,-2.2997,-2.2989,-2.2856,0,0,0,0,0,-2.2432,-2.2486,-2.2538,-2.2606,-2.2629,-2.2665,-2.2698,-2.2711,-2.2759,-2.2778,-2.2816,-2.2863,-2.292,-2.2957,-2.3011,-2.3098,-2.3112,-2.3135,-2.3142,-2.3147,-2.3155,-2.3204,-2.3215,-2.3096,-2.3096,-2.3096,0,0,-2.2456,-2.2497,-2.2529,-2.2609,-2.2645,-2.2701,-2.2681,-2.2741,-2.2783,-2.2788,-2.2864,-2.2893,-2.2948,-2.303,-2.3069,-2.3057,-2.3191,-2.3154,-2.3158,-2.3163,-2.3211,-2.3222,-2.3232,-2.31,-2.3099,-2.3099,0,0,-2.2529,-2.2565,-2.2626,-2.2663,-2.2718,-2.2742,-2.2757,-2.2813,-2.2833,-2.2909,-2.2914,-2.2965,-2.3062,-2.3101,-2.3133,-2.3221,-2.3223,-2.3239,-2.3276,-2.3323,-2.3332,-2.3341,-2.3373,-2.3384,-2.3246,-2.3246,-2.3246,0,-2.2552,-2.2636,-2.2657,-2.2718,-2.2753,-2.2759,-2.2821,-2.2856,-2.2927,-2.2952,-2.2937,-2.3059,-2.3097,-2.3189,-2.3211,-2.3236,-2.3255,-2.3232,-2.3329,-2.3338,-2.3346,-2.3377,-2.3389,-2.3248,-2.3248,-2.3248,-2.3248,0,-2.2662,-2.2721,-2.2764,-2.2831,-2.2871,-2.2932,-2.2964,-2.3002,-2.3011,-2.3037,-2.3116,-2.3161,-2.3225,-2.3248,-2.3258,-2.3342,-2.3333,-2.3323,-2.3297,-2.3359,-2.3388,-2.34,-2.325,-2.325,-2.3249,-2.3249,0,0,-2.2744,-2.2822,-2.2838,-2.2869,-2.293,-2.2976,-2.3038,-2.3101,-2.3133,-2.3182,-2.3235,-2.3317,-2.3309,-2.3346,-2.3361,-2.3402,-2.347,-2.3388,-2.3389,-2.3402,-2.3567,-2.3574,-2.3587,-2.3471,-2.3473,-2.3475,-2.3562,0,-2.2824,-2.2933,-2.2954,-2.3049,-2.3104,-2.3111,-2.3165,-2.3209,-2.3235,-2.3286,-2.3315,-2.3373,-2.3357,-2.3379,-2.342,-2.3453,-2.3504,-2.3447,-2.3522,-2.3524,-2.3508,-2.3603,-2.361,-2.3691,-2.3574,-2.3576,-2.3578,0,-2.2931,-2.2982,-2.3083,-2.3138,-2.3162,-2.321,-2.3269,-2.3317,-2.3368,-2.3384,-2.3426,-2.3436,-2.3501,-2.3472,-2.3563,-2.3524,-2.3556,-2.3577,-2.3581,-2.3589,-2.3555,-2.3614,-2.3717,-2.3729,-2.3596,-2.3594,-2.3593,0,-2.2981,-2.3075,-2.3148,-2.3174,-2.324,-2.3274,-2.3303,-2.3351,-2.3388,-2.344,-2.3464,-2.3523,-2.3556,-2.3602,-2.3628,-2.3604,-2.3718,-2.3691,-2.3734,-2.3734,-2.3758,-2.3757,-2.3868,-2.3778,-2.3778,-2.3778,-2.3777,0,-2.3069,-2.313,-2.3171,-2.3216,-2.3285,-2.3309,-2.3378,-2.3406,-2.345,-2.3501,-2.351,-2.3559,-2.359,-2.3643,-2.3664,-2.3737,-2.3752,-2.3767,-2.3772,-2.3767,-2.3765,-2.3788,-2.3784,-2.3781,-2.378,-2.3779,-2.3779,0,-2.3136,-2.3166,-2.3246,-2.3301,-2.3317,-2.3366,-2.3414,-2.3458,-2.3484,-2.3548,-2.3565,-2.3606,-2.3669,-2.37,-2.3778,-2.3792,-2.3875,-2.3876,-2.3858,-2.386,-2.3902,-2.3898,-2.4033,-2.4052,-2.3949,-2.395,-2.395,0,-2.3191,-2.3238,-2.3299,-2.3333,-2.3363,-2.3419,-2.3456,-2.3481,-2.352,-2.3581,-2.3619,-2.3682,-2.3733,-2.3834,-2.3871,-2.3931,-2.3934,-2.3977,-2.3943,-2.3937,-2.3936,-2.3933,-2.3938,-2.3984,-2.3985,-2.3986,-2.3986,0,-2.3284,-2.3296,-2.3349,-2.3407,-2.3451,-2.3498,-2.3544,-2.3572,-2.3606,-2.3649,-2.3712,-2.3753,-2.3832,-2.3895,-2.3958,-2.3989,-2.3994,-2.3996,-2.401,-2.4005,-2.3993,-2.4001,-2.3875,-2.3993,-2.3993,-2.3992,-2.3992,-2.3991,-2.3347,-2.339,-2.3439,-2.3498,-2.3535,-2.3578,-2.3623,-2.3654,-2.3707,-2.3774,-2.3786,-2.3854,-2.3905,-2.3989,-2.4023,-2.4077,-2.4068,-2.4087,-2.4092,-2.4097,-2.4099,-2.3983,-2.4089,-2.4089,-2.4088,-2.4088,-2.4088,0,-2.3441,-2.3473,-2.3527,-2.3591,-2.3638,-2.3637,-2.3689,-2.3728,-2.3787,-2.3833,-2.3884,-2.3958,-2.4019,-2.4062,-2.4124,-2.416,-2.4164,-2.4175,-2.4173,-2.4181,-2.4104,-2.4086,-2.4171,-2.4171,-2.4171,-2.4171,-2.4171,-2.4171,-2.3496,-2.3568,-2.3587,-2.3678,-2.371,-2.3776,-2.3806,-2.3846,-2.3883,-2.3965,-2.4016,-2.4043,-2.4088,-2.4154,-2.421,-2.4221,-2.4244,-2.4256,-2.4267,-2.4195,-2.4186,-2.4178,-2.4161,-2.4261,-2.4261,-2.434,-2.4341,-2.4341]}]]